Flag for Norway Weather past 2 weeks in Mo i Rana, Norway

Now
19 °F

Light snow. Ice fog.


Feels Like: 19 °F
Forecast: 39 / 44 °F
Wind: No wind

Location: Mo I Rana / Rossvoll

Current Time: Dec 29, 2014 at 2:06:57 PM

Latest Report: Dec 29, 2014 at 1:20 PM


Visibility: 1 mi

Pressure: 29.89 "Hg

Humidity: 93%

Dew point: 18 °F

Location of Mo i RanaLocation

Historic Weather in Mo i Rana — Graph

°F

Mo i Rana temperature yesterday

Maximum temperature yesterday: 12 °F (at 1:20 PM)
Minimum temperature yesterday: 9 °F (at 9:50 AM)
Average temperature yesterday: 12 °F

Past Weeks' High & Low Weather Summary

 TemperatureHumidityPressure
High36 °F (Dec 15, 6:20 AM)100% (Dec 14, 3:50 PM)30.12 "Hg (Dec 14, 3:50 PM)
Low-9 °F (Dec 27, 5:20 AM)47% (Dec 14, 8:50 PM)28.94 "Hg (Dec 19, 11:20 AM)
Average18 °F81%29.38 "Hg
* Reported Dec 14 12:20 PM — Dec 29 12:20 PM, Mo i Rana, Weather by CustomWeather, © 2014

Note: Actual official high and low records may vary slightly from our data, if they occured in-between our weather recording intervals... More about our weather records

Advertising

Mo i Rana weather history for previous 24 hours

 ConditionsComfort  
Time TempWeatherWind HumidityBarometerVisibility
12:20 PM
Dec 29
19 °FLight snow. Ice fog.No wind93%29.89 "Hg2 mi
11:50 AM19 °FLight snow. Ice fog.No wind93%29.89 "Hg2 mi
11:20 AM19 °FLight snow. Ice fog.No wind93%29.89 "Hg2 mi
10:50 AM18 °FLight snow. Ice fog.No wind100%29.92 "Hg2 mi
10:20 AM18 °FLight snow. Ice fog.No wind93%29.92 "Hg2 mi
9:20 AM18 °FLight snow. Ice fog.No wind100%29.92 "Hg2 mi
8:50 AM18 °FLight snow. Ice fog.No wind93%29.95 "Hg2 mi
8:20 AM18 °FSnow flurries. Ice fog.No wind93%29.95 "Hg2 mi
7:50 AM18 °FSnow flurries. Ice fog.No wind93%29.95 "Hg2 mi
6:50 AM16 °FSnow flurries. Ice fog.No wind93%29.95 "Hg2 mi
6:20 AM16 °FSnow flurries. Ice fog.No wind93%29.98 "Hg4 mi
5:50 AM16 °FSnow flurries. Passing clouds.No wind93%29.98 "HgN/A
10:50 PM
Dec 28
12 °FPassing clouds.1 mph92%30.09 "HgN/A
9:50 PM12 °FPartly cloudy.1 mph92%30.09 "HgN/A
9:20 PM12 °FPartly cloudy.1 mph92%30.09 "HgN/A
8:50 PM12 °FPartly cloudy.2 mph92%30.09 "HgN/A
8:20 PM12 °FPartly cloudy.2 mph92%30.09 "HgN/A
7:50 PM12 °FPassing clouds.2 mph92%30.09 "HgN/A
7:20 PM12 °FPassing clouds.2 mph92%30.09 "HgN/A
6:50 PM12 °FPassing clouds.2 mph92%30.09 "HgN/A
5:50 PM12 °FPassing clouds.1 mph85%30.09 "HgN/A
5:20 PM12 °FPassing clouds.2 mph85%30.09 "HgN/A
4:50 PM12 °FPassing clouds.2 mph92%30.09 "HgN/A
4:20 PM12 °FPassing clouds.2 mph85%30.07 "HgN/A
3:50 PM12 °FPartly cloudy.2 mph85%30.07 "HgN/A
3:20 PM12 °FSnow flurries. Partly cloudy.2 mph85%30.07 "HgN/A
2:50 PM12 °FSnow flurries. Partly cloudy.2 mph85%30.07 "HgN/A
2:20 PM12 °FSnow showers. Ice fog.2 mph85%30.07 "Hg1 mi
Weather by CustomWeather, © 2014

See weather overviewHow to use our weather pages